Tracking 19717 objects as of 24-Jun-2019
HD Live streaming from Space Station
objects crossing your sky now

THORAD AGENA D DEB

Track THORAD AGENA D DEB now!
10-day predictions


NORAD ID: 4757
Int'l Code: 1970-025DF
Perigee: 1,025.6 km
Apogee: 1,046.5 km
Inclination: 99.6 °
Period: 105.7 minutes
Semi major axis: 7407 km
RCS: 0.042 m2 (small)
Launch date: April 8, 1970
Source: United States (US)
Launch site: AIR FORCE WESTERN TEST RANGE (AFWTR)

Note: This is SATELLITE DEBRIS
aabbcc
Your satellite tracking list
Your tracking list is empty




NASA's NSSDC Master Catalog

Two Line Element Set (TLE):
1  4757U 70025DF  19174.63710236  .00000107  00000-0  19702-3 0  9997
2  4757  99.6356  68.7992 0014091 106.6935 315.1060 13.61875518433842
Source of the keplerian elements: AFSPC